Flag for Israel Weather past 2 weeks in Bnei Brak, Israel

Now
82 °F

Passing clouds.


Feels Like: 87 °F
Forecast: 75 / 90 °F
Wind: 8 mph from Northwest

Location: Dov Airport

Current Time: Aug 22, 2014 at 1:06:19 AM

Latest Report: Aug 21, 2014 at 10:50 PM


Visibility: N/A

Pressure: 29.83 "Hg

Humidity: 70%

Dew point: 72 °F

Location of Bnei BrakLocation

Historic Weather in Bnei Brak — Graph

°F

Bnei Brak temperature yesterday

Maximum temperature yesterday: 86 °F (at 8:50 AM)
Minimum temperature yesterday: 77 °F (at 4:50 AM)
Average temperature yesterday: 83 °F

Past Weeks' High & Low Weather Summary

 TemperatureHumidityPressure
High90 °F (Aug 18, 11:50 AM)89% (Aug 14, 4:50 AM)29.92 "Hg (Aug 14, 4:50 AM)
Low77 °F (Aug 7, 4:50 AM)55% (Aug 21, 8:50 AM)29.59 "Hg (Aug 17, 3:50 PM)
Average84 °F69%29.76 "Hg
* Reported Aug 6 10:50 PM — Aug 21 10:50 PM, Bnei Brak, Weather by CustomWeather, © 2014

Note: Actual official high and low records may vary slightly from our data, if they occured in-between our weather recording intervals... More about our weather records

Advertising

Bnei Brak weather history for previous 24 hours

 ConditionsComfort  
Time TempWeatherWind HumidityBarometerVisibility
10:50 PM
Aug 21
82 °FPassing clouds.8 mph70%29.83 "HgN/A
9:50 PM82 °FPassing clouds.9 mph66%29.83 "HgN/A
8:50 PM82 °FPassing clouds.12 mph66%29.83 "HgN/A
7:50 PM82 °FScattered clouds.12 mph66%29.80 "HgN/A
6:50 PM84 °FPassing clouds.13 mph62%29.80 "HgN/A
5:50 PM86 °FPassing clouds.15 mph59%29.80 "HgN/A
4:50 PM86 °FSunny.16 mph59%29.83 "Hg10 mi
3:50 PM86 °FSunny.15 mph59%29.83 "Hg10 mi
2:50 PM86 °FPassing clouds.14 mph55%29.83 "HgN/A
1:50 PM86 °FPassing clouds.10 mph55%29.86 "HgN/A
12:50 PM86 °FPassing clouds.12 mph55%29.86 "HgN/A
11:50 AM86 °FPassing clouds.8 mph55%29.89 "HgN/A
10:50 AM84 °FPassing clouds.6 mph58%29.89 "HgN/A
9:50 AM84 °FScattered clouds.3 mph58%29.89 "HgN/A
8:50 AM86 °FScattered clouds.2 mph55%29.89 "HgN/A
7:50 AM81 °FScattered clouds.5 mph66%29.89 "HgN/A
6:50 AM77 °FPassing clouds.3 mph74%29.89 "HgN/A
5:50 AM77 °FPassing clouds.5 mph74%29.89 "HgN/A
4:50 AM77 °FPassing clouds.6 mph74%29.86 "HgN/A
Weather by CustomWeather, © 2014

See weather overviewHow to use our weather pages